This demonstration page uses our WeatherBlox Daily Observations layout. Learn more.

Left ArrowRight Arrow

Hourly Observations for December 10, 2019

Temp ( °F °C ) Dew Point ( °F °C ) Humidity (%) Winds ( mph kmh ) Pressure ( in mb ) Visibility ( mi km ) Precip ( " mm )
12:51 am 00:51 Clear 39 3.9 38 3.3 96 96 N N/A 30.06 1018 10 16 N/A
1:51 am 01:51 Clear 39 3.9 38 3.3 96 96 ESE 3 6 30.10 1019 10 16 N/A
2:51 am 02:51 Clear 38 3.3 38 3.3 100 100 SE 3 6 30.12 1020 10 16 N/A
3:51 am 03:51 Clear 38 3.3 37 2.8 97 97 N N/A 30.12 1020 10 16 N/A
4:51 am 04:51 Clear 37 2.8 36 2.2 96 96 N N/A 30.14 1021 10 16 N/A
5:51 am 05:51 Mostly Clear 37 2.8 36 2.2 96 96 N N/A 30.16 1021 10 16 N/A
6:49 am 06:49 Mostly Cloudy 36 2 36 2 100 100 N N/A 30.28 1026 10 16 N/A
6:51 am 06:51 Mostly Cloudy 36 2.2 36 2.2 100 100 N N/A 30.19 1023 10 16 N/A
7:20 am 07:20 Mostly Cloudy with Mist and Fog 36 2.2 35 1.7 97 97 N N/A 30.29 1026 2 3 N/A
7:27 am 07:27 Mostly Cloudy with Mist and Fog 36 2.2 36 2.2 100 100 N N/A 30.29 1026 4 6 N/A
7:51 am 07:51 Cloudy 39 3.9 38 3.3 96 96 N N/A 30.21 1023 10 16 N/A
8:47 am 08:47 Cloudy 43 6 41 5 93 93 N N/A 30.29 1026 10 16 N/A
8:51 am 08:51 Cloudy 42 5.6 41 5 96 96 N N/A 30.24 1024 10 16 N/A
9:48 am 09:48 Cloudy with Mist and Fog 43 6 43 6 100 100 N N/A 30.32 1027 2 3 N/A
9:51 am 09:51 Cloudy with Mist and Fog 42 5.6 42 5.6 100 100 SE 3 6 30.27 1025 1 2 N/A
10:00 am 10:00 Cloudy with Fog 43 6.1 43 6.1 100 100 N N/A 30.32 1027 1 1 N/A
10:11 am 10:11 Cloudy with Mist and Fog 44 6.7 43 6.1 96 96 N N/A 30.31 1027 2 3 N/A
10:19 am 10:19 Mostly Cloudy 45 7.2 43 6.1 93 93 N N/A 30.31 1026 10 16 N/A
10:33 am 10:33 Partly Cloudy 47 8.3 44 6.7 90 90 N N/A 30.29 1026 10 16 N/A
10:51 am 10:51 Mostly Sunny 47 8.3 44 6.7 90 90 N N/A 30.27 1025 10 16 N/A
11:51 am 11:51 Sunny 50 10 43 6.1 77 77 VRB 3 6 30.25 1024 10 16 N/A
12:51 pm 12:51 Sunny 54 12.2 44 6.7 69 69 S 6 9 30.22 1023 10 16 N/A
1:51 pm 13:51 Sunny 55 12.8 43 6.1 64 64 SSW 3 6 30.19 1023 10 16 N/A
2:51 pm 14:51 Sunny 57 13.9 44 6.7 62 62 VRB 3 6 30.18 1022 10 16 N/A
3:51 pm 15:51 Sunny 58 14.4 43 6.1 58 58 S 6 9 30.18 1022 10 16 N/A
4:51 pm 16:51 Sunny 57 13.9 42 5.6 58 58 SSE 5 7 30.19 1022 10 16 N/A
5:51 pm 17:51 Clear 51 10.6 45 7.2 80 80 E 3 6 30.20 1023 10 16 N/A
6:51 pm 18:51 Clear 49 9.4 45 7.2 86 86 ENE 7 11 30.22 1023 10 16 N/A
7:51 pm 19:51 Clear 48 8.9 44 6.7 86 86 ENE 6 9 30.23 1024 10 16 N/A
8:51 pm 20:51 Clear 46 7.8 42 5.6 86 86 N N/A 30.24 1024 10 16 N/A
9:51 pm 21:51 Clear 43 6.1 42 5.6 97 97 N N/A 30.24 1024 10 16 N/A
10:51 pm 22:51 Clear 42 5.6 41 5 96 96 NW 3 6 30.25 1025 10 16 N/A
11:51 pm 23:51 Clear 40 4.4 39 3.9 97 97 N N/A 30.25 1025 10 16 N/A

Powered by AerisWeather